When you browse on this site, cookies collect data to enhance your experience and personalize the content and advertising you see.
Visit our Privacy Policy to learn more. By continuing to use the site, you agree to this use of cookies and data.
  • In Slovakia
  • List of Countries
  • For 7 days
  • Water Temperature
  • Satellite Maps
  • Weather Map
  • Weather Widgets
  • user-avatar
    Login

    Hourly Weather Zaranj

    Today, 16 January, Wednesday

    Time Temperature Precipitation Wind Pressure Humidity
    00:00 +18°C° 0 mm 1 mps 719 mmHg 23%
    01:00 +18°C° 0 mm 1 mps 719 mmHg 23%
    02:00 +16°C° 0 mm 1 mps 719 mmHg 23%
    03:00 +16°C° 0 mm 1 mps 719 mmHg 23%
    04:00 +14°C° 0 mm 0 mps 719 mmHg 20%
    05:00 +15°C° 0 mm 1 mps 719 mmHg 23%
    06:00 +15°C° 0 mm 2 mps 720 mmHg 25%
    07:00 +15°C° 0 mm 2 mps 720 mmHg 28%
    08:00 +17°C° 0 mm 2 mps 720 mmHg 26%
    09:00 +18°C° 0 mm 2 mps 721 mmHg 25%
    10:00 +20°C° 0 mm 2 mps 721 mmHg 24%
    11:00 +21°C° 0 mm 2 mps 721 mmHg 23%
    12:00 +23°C° 0 mm 2 mps 720 mmHg 21%
    13:00 +24°C° 0 mm 2 mps 720 mmHg 20%
    14:00 +24°C° 0 mm 2 mps 720 mmHg 20%
    15:00 +24°C° 0 mm 1 mps 719 mmHg 20%
    16:00 +25°C° 0 mm 1 mps 719 mmHg 19%
    17:00 +23°C° 0 mm 1 mps 719 mmHg 21%
    18:00 +22°C° 0 mm 1 mps 719 mmHg 23%
    19:00 +20°C° 0 mm 2 mps 719 mmHg 24%
    20:00 +20°C° 0 mm 1 mps 719 mmHg 25%
    21:00 +20°C° 0 mm 1 mps 719 mmHg 26%
    22:00 +19°C° 0 mm 1 mps 719 mmHg 28%
    23:00 +19°C° 0 mm 1 mps 719 mmHg 29%

    Tomorrow, 17 January, Thursday

    Time Temperature Precipitation Wind Pressure Humidity
    00:00 +19°C° 0 mm 1 mps 719 mmHg 30%
    01:00 +18°C° 0 mm 2 mps 719 mmHg 31%
    02:00 +17°C° 0 mm 2 mps 718 mmHg 32%
    03:00 +17°C° 0 mm 2 mps 718 mmHg 34%
    04:00 +16°C° 0 mm 2 mps 718 mmHg 35%
    05:00 +16°C° 0 mm 2 mps 718 mmHg 36%
    06:00 +16°C° 0 mm 2 mps 718 mmHg 37%
    07:00 +15°C° 0 mm 2 mps 718 mmHg 38%
    08:00 +17°C° 0 mm 2 mps 718 mmHg 35%
    09:00 +19°C° 0 mm 2 mps 718 mmHg 31%
    10:00 +21°C° 0 mm 2 mps 718 mmHg 27%
    11:00 +24°C° 0 mm 2 mps 718 mmHg 25%
    12:00 +25°C° 0 mm 3 mps 717 mmHg 23%
    13:00 +27°C° 0 mm 3 mps 716 mmHg 21%
    14:00 +27°C° 0 mm 3 mps 716 mmHg 21%
    15:00 +27°C° 0 mm 2 mps 715 mmHg 21%
    16:00 +27°C° 0 mm 2 mps 715 mmHg 21%
    17:00 +26°C° 0 mm 2 mps 715 mmHg 22%
    18:00 +25°C° 0 mm 2 mps 714 mmHg 24%
    19:00 +24°C° 0 mm 2 mps 714 mmHg 26%
    20:00 +24°C° 0 mm 3 mps 714 mmHg 26%
    21:00 +22°C° 0 mm 4 mps 714 mmHg 26%
    22:00 +22°C° 0 mm 5 mps 713 mmHg 26%
    23:00 +22°C° 0 mm 6 mps 713 mmHg 26%

    Day after tomorrow, 18 January, Friday

    Time Temperature Precipitation Wind Pressure Humidity
    00:00 +23°C° 0 mm 6 mps 713 mmHg 26%
    01:00 +23°C° 0 mm 7 mps 713 mmHg 27%
    02:00 +23°C° 0 mm 8 mps 713 mmHg 28%
    03:00 +22°C° 0 mm 9 mps 713 mmHg 29%
    04:00 +22°C° 0 mm 10 mps 712 mmHg 30%
    05:00 +22°C° 0 mm 9 mps 713 mmHg 33%
    06:00 +21°C° 0 mm 8 mps 714 mmHg 37%
    07:00 +21°C° 0 mm 6 mps 714 mmHg 40%
    08:00 +21°C° 0 mm 7 mps 715 mmHg 36%
    09:00 +22°C° 0 mm 8 mps 716 mmHg 31%
    10:00 +23°C° 0 mm 8 mps 717 mmHg 26%
    11:00 +23°C° 0 mm 7 mps 717 mmHg 21%
    12:00 +24°C° 0 mm 6 mps 717 mmHg 17%
    13:00 +25°C° 0 mm 5 mps 716 mmHg 13%
    14:00 +25°C° 0 mm 5 mps 716 mmHg 11%
    15:00 +25°C° 0 mm 5 mps 716 mmHg 10%
    16:00 +23°C° 0 mm 5 mps 715 mmHg 8%
    17:00 +22°C° 0 mm 5 mps 716 mmHg 7%
    18:00 +21°C° 0 mm 5 mps 716 mmHg 6%
    19:00 +20°C° 0 mm 5 mps 716 mmHg 5%
    20:00 +19°C° 0 mm 4 mps 717 mmHg 6%
    21:00 +18°C° 0 mm 4 mps 717 mmHg 7%
    22:00 +18°C° 0 mm 3 mps 717 mmHg 8%
    23:00 +17°C° 0 mm 3 mps 717 mmHg 10%

    19 January, Saturday

    Time Temperature Precipitation Wind Pressure Humidity
    00:00 +16°C° 0 mm 3 mps 716 mmHg 11%
    01:00 +16°C° 0 mm 3 mps 716 mmHg 13%
    02:00 +14°C° 0 mm 3 mps 716 mmHg 19%
    03:00 +13°C° 0 mm 4 mps 716 mmHg 26%
    04:00 +13°C° 0 mm 5 mps 715 mmHg 32%
    05:00 +12°C° 0 mm 5 mps 716 mmHg 36%
    06:00 +12°C° 0 mm 4 mps 716 mmHg 39%
    07:00 +11°C° 0 mm 4 mps 716 mmHg 43%
    08:00 +12°C° 0 mm 4 mps 716 mmHg 39%
    09:00 +14°C° 0 mm 4 mps 716 mmHg 35%
    10:00 +15°C° 0 mm 4 mps 717 mmHg 31%
    11:00 +17°C° 0 mm 3 mps 716 mmHg 29%
    12:00 +18°C° 0 mm 3 mps 716 mmHg 27%
    13:00 +19°C° 0 mm 2 mps 715 mmHg 24%
    14:00 +19°C° 0 mm 2 mps 715 mmHg 23%
    15:00 +20°C° 0 mm 3 mps 714 mmHg 22%
    16:00 +20°C° 0 mm 3 mps 714 mmHg 21%
    17:00 +19°C° 0 mm 4 mps 714 mmHg 23%
    18:00 +18°C° 0 mm 4 mps 714 mmHg 24%
    19:00 +17°C° 0 mm 4 mps 715 mmHg 25%
    20:00 +15°C° 0 mm 6 mps 715 mmHg 29%
    21:00 +13°C° 0 mm 8 mps 715 mmHg 34%
    22:00 +12°C° 0 mm 10 mps 716 mmHg 38%
    23:00 +11°C° 0 mm 10 mps 716 mmHg 39%

    20 January, Sunday

    Time Temperature Precipitation Wind Pressure Humidity
    00:00 +11°C° 0 mm 11 mps 717 mmHg 40%
    01:00 +9°C° 0 mm 11 mps 717 mmHg 40%
    02:00 +9°C° 0 mm 10 mps 718 mmHg 42%
    03:00 +8°C° 0 mm 10 mps 718 mmHg 44%
    04:00 +8°C° 0 mm 9 mps 719 mmHg 45%
    05:00 +7°C° 0 mm 9 mps 720 mmHg 46%
    06:00 +7°C° 0 mm 8 mps 721 mmHg 47%
    07:00 +6°C° 0 mm 8 mps 722 mmHg 48%
    08:00 +7°C° 0 mm 8 mps 722 mmHg 45%
    09:00 +9°C° 0 mm 8 mps 723 mmHg 42%
    10:00 +10°C° 0 mm 8 mps 723 mmHg 39%
    11:00 +10°C° 0 mm 8 mps 723 mmHg 36%
    12:00 +11°C° 0 mm 8 mps 722 mmHg 33%
    13:00 +12°C° 0 mm 7 mps 721 mmHg 30%
    14:00 +12°C° 0 mm 7 mps 721 mmHg 29%
    15:00 +12°C° 0 mm 7 mps 721 mmHg 28%
    16:00 +12°C° 0 mm 7 mps 721 mmHg 27%
    17:00 +11°C° 0 mm 7 mps 721 mmHg 27%
    18:00 +10°C° 0 mm 6 mps 722 mmHg 27%
    19:00 +9°C° 0 mm 6 mps 722 mmHg 27%
    20:00 +9°C° 0 mm 6 mps 722 mmHg 30%
    21:00 +8°C° 0 mm 6 mps 723 mmHg 33%
    22:00 +8°C° 0 mm 6 mps 723 mmHg 36%
    23:00 +7°C° 0 mm 6 mps 723 mmHg 38%

    21 January, Monday

    Time Temperature Precipitation Wind Pressure Humidity
    00:00 +7°C° 0 mm 6 mps 723 mmHg 39%
    01:00 +7°C° 0 mm 6 mps 722 mmHg 40%
    02:00 +5°C° 0 mm 6 mps 722 mmHg 41%
    03:00 +5°C° 0 mm 6 mps 722 mmHg 42%
    04:00 +5°C° 0 mm 7 mps 722 mmHg 43%
    05:00 +5°C° 0 mm 6 mps 722 mmHg 44%
    06:00 +4°C° 0 mm 6 mps 723 mmHg 46%
    07:00 +4°C° 0 mm 6 mps 723 mmHg 47%
    08:00 +5°C° 0 mm 7 mps 723 mmHg 43%
    09:00 +6°C° 0 mm 7 mps 724 mmHg 39%
    10:00 +8°C° 0 mm 7 mps 724 mmHg 35%
    11:00 +9°C° 0 mm 7 mps 723 mmHg 32%
    12:00 +10°C° 0 mm 7 mps 722 mmHg 29%
    13:00 +11°C° 0 mm 6 mps 721 mmHg 26%
    14:00 +11°C° 0 mm 6 mps 721 mmHg 25%
    15:00 +12°C° 0 mm 5 mps 721 mmHg 25%
    16:00 +12°C° 0 mm 5 mps 720 mmHg 24%
    17:00 +11°C° 0 mm 4 mps 721 mmHg 27%
    18:00 +10°C° 0 mm 4 mps 721 mmHg 29%
    19:00 +10°C° 0 mm 3 mps 721 mmHg 31%
    20:00 +9°C° 0 mm 3 mps 721 mmHg 33%
    21:00 +9°C° 0 mm 3 mps 721 mmHg 35%
    22:00 +8°C° 0 mm 3 mps 721 mmHg 37%
    23:00 +8°C° 0 mm 3 mps 721 mmHg 39%
    Show more